| time (UTC) | temp C | wind direction | speed KPH | gust KPH | rain 1hr cm | rain 24hr cm | rain mn cm | humidity % | barometer mb |
| 20260902224811 | 17 | 260 | 16.1 | 0.0 | 0.00 | 0.00 | 0.00 | 59 | 1020.0 |
| 20260902223311 | 17 | 260 | 16.1 | 0.0 | 0.00 | 0.00 | 0.00 | 59 | 1020.0 |
| 20260902221811 | 17 | 270 | 16.1 | 0.0 | 0.00 | 0.00 | 0.00 | 56 | 1020.0 |
| 20260902220311 | 17 | 270 | 16.1 | 0.0 | 0.00 | 0.00 | 0.00 | 56 | 1020.0 |
| 20260902214811 | 17 | 270 | 14.5 | 0.0 | 0.00 | 0.00 | 0.00 | 56 | 1020.0 |
| 20260902213311 | 17 | 270 | 14.5 | 0.0 | 0.00 | 0.00 | 0.00 | 56 | 1020.0 |
| 20260902211811 | 17 | 270 | 8.0 | 0.0 | 0.00 | 0.00 | 0.00 | 56 | 1020.0 |
| 20260902210311 | 17 | 270 | 8.0 | 0.0 | 0.00 | 0.00 | 0.00 | 56 | 1020.0 |
| 20260902204810 | 17 | 290 | 11.3 | 0.0 | 0.00 | 0.00 | 0.00 | 52 | 1020.0 |
| 20260902203311 | 17 | 290 | 11.3 | 0.0 | 0.00 | 0.00 | 0.00 | 52 | 1020.0 |
| 20260902201811 | 17 | 250 | 12.9 | 0.0 | 0.00 | 0.00 | 0.00 | 49 | 1020.0 |
| 20260902200326 | 17 | 250 | 12.9 | 0.0 | 0.00 | 0.00 | 0.00 | 49 | 1020.0 |
| 20260902194811 | 17 | 270 | 11.3 | 0.0 | 0.00 | 0.00 | 0.00 | 59 | 1020.0 |
| 20260902193311 | 17 | 270 | 11.3 | 0.0 | 0.00 | 0.00 | 0.00 | 59 | 1020.0 |
| 20260902191811 | 17 | 270 | 8.0 | 0.0 | 0.00 | 0.00 | 0.00 | 59 | 1020.0 |
| 20260902190311 | 17 | 270 | 8.0 | 0.0 | 0.00 | 0.00 | 0.00 | 59 | 1020.0 |
| 20260902184811 | 18 | 250 | 9.7 | 0.0 | 0.00 | 0.00 | 0.00 | 49 | 1020.0 |
| 20260902183311 | 18 | 250 | 9.7 | 0.0 | 0.00 | 0.00 | 0.00 | 49 | 1020.0 |
| 20260902181811 | 20 | 260 | 3.2 | 0.0 | 0.00 | 0.00 | 0.00 | 53 | 1019.0 |
| 20260902180311 | 20 | 260 | 3.2 | 0.0 | 0.00 | 0.00 | 0.00 | 53 | 1019.0 |
| 20260902174811 | 23 | 360 | 9.7 | 0.0 | 0.00 | 0.00 | 0.00 | 41 | 1019.0 |
| 20260902173311 | 23 | 360 | 9.7 | 0.0 | 0.00 | 0.00 | 0.00 | 41 | 1019.0 |
| 20260902171811 | 25 | 10 | 8.0 | 0.0 | 0.00 | 0.00 | 0.00 | 36 | 1019.0 |
| 20260902170311 | 25 | 10 | 8.0 | 0.0 | 0.00 | 0.00 | 0.00 | 36 | 1019.0 |
| 20260902164925 | 25 | 300 | 12.9 | 0.0 | 0.00 | 0.00 | 0.00 | 30 | 1018.0 |
| 20260902163311 | 25 | 300 | 12.9 | 0.0 | 0.00 | 0.00 | 0.00 | 30 | 1018.0 |
| 20260902161811 | 27 | 320 | 14.5 | 0.0 | 0.00 | 0.00 | 0.00 | 24 | 1018.0 |
| 20260902160322 | 27 | 320 | 14.5 | 0.0 | 0.00 | 0.00 | 0.00 | 24 | 1018.0 |
| 20260902154812 | 27 | 290 | 16.1 | 0.0 | 0.00 | 0.00 | 0.00 | 23 | 1019.0 |
| 20260902153310 | 27 | 290 | 16.1 | 0.0 | 0.00 | 0.00 | 0.00 | 23 | 1019.0 |
| 20260902151811 | 27 | 330 | 16.1 | 0.0 | 0.00 | 0.00 | 0.00 | 21 | 1019.0 |
| 20260902150311 | 27 | 330 | 16.1 | 0.0 | 0.00 | 0.00 | 0.00 | 21 | 1019.0 |
| 20260902144811 | 27 | 320 | 14.5 | 0.0 | 0.00 | 0.00 | 0.00 | 23 | 1019.0 |
| 20260902143311 | 27 | 320 | 14.5 | 0.0 | 0.00 | 0.00 | 0.00 | 23 | 1019.0 |
| 20260902140311 | 28 | 360 | 12.9 | 0.0 | 0.00 | 0.00 | 0.00 | 23 | 1019.0 |
| 20260902134811 | 28 | 310 | 20.9 | 0.0 | 0.00 | 0.00 | 0.00 | 20 | 1019.0 |
| 20260902133310 | 28 | 310 | 20.9 | 0.0 | 0.00 | 0.00 | 0.00 | 20 | 1019.0 |
| 20260902131811 | 27 | 340 | 16.1 | 0.0 | 0.00 | 0.00 | 0.00 | 23 | 1019.0 |
| 20260902130311 | 27 | 340 | 16.1 | 0.0 | 0.00 | 0.00 | 0.00 | 23 | 1019.0 |
| 20260902124813 | 27 | 300 | 11.3 | 0.0 | 0.00 | 0.00 | 0.00 | 21 | 1020.0 |
| 20260902123311 | 27 | 300 | 11.3 | 0.0 | 0.00 | 0.00 | 0.00 | 21 | 1020.0 |
| 20260902121812 | 27 | 340 | 24.1 | 0.0 | 0.00 | 0.00 | 0.00 | 23 | 1020.0 |
| 20260902120311 | 27 | 340 | 24.1 | 0.0 | 0.00 | 0.00 | 0.00 | 23 | 1020.0 |
| 20260902114811 | 27 | 310 | 16.1 | 0.0 | 0.00 | 0.00 | 0.00 | 26 | 1020.0 |
| 20260902113311 | 27 | 310 | 16.1 | 0.0 | 0.00 | 0.00 | 0.00 | 26 | 1020.0 |
| 20260902111811 | 27 | 350 | 20.9 | 0.0 | 0.00 | 0.00 | 0.00 | 28 | 1020.0 |
| 20260902110312 | 27 | 350 | 20.9 | 0.0 | 0.00 | 0.00 | 0.00 | 28 | 1020.0 |
| 20260902104811 | 27 | 350 | 12.9 | 0.0 | 0.00 | 0.00 | 0.00 | 26 | 1020.0 |
| 20260902103310 | 27 | 350 | 12.9 | 0.0 | 0.00 | 0.00 | 0.00 | 26 | 1020.0 |
| 20260902101811 | 27 | 310 | 24.1 | 0.0 | 0.00 | 0.00 | 0.00 | 28 | 1021.0 |
| 20260902100317 | 27 | 310 | 24.1 | 0.0 | 0.00 | 0.00 | 0.00 | 28 | 1021.0 |
| 20260902094811 | 26 | 330 | 16.1 | 0.0 | 0.00 | 0.00 | 0.00 | 30 | 1021.0 |
| 20260902093311 | 26 | 330 | 16.1 | 0.0 | 0.00 | 0.00 | 0.00 | 30 | 1021.0 |
| 20260902091811 | 26 | 300 | 17.7 | 0.0 | 0.00 | 0.00 | 0.00 | 30 | 1021.0 |
| 20260902090411 | 25 | 320 | 17.7 | 0.0 | 0.00 | 0.00 | 0.00 | 34 | 1021.0 |
| 20260902084811 | 25 | 320 | 17.7 | 0.0 | 0.00 | 0.00 | 0.00 | 34 | 1021.0 |
| 20260902083311 | 25 | 320 | 17.7 | 0.0 | 0.00 | 0.00 | 0.00 | 34 | 1021.0 |
| 20260902081811 | 25 | 340 | 20.9 | 0.0 | 0.00 | 0.00 | 0.00 | 34 | 1021.0 |
| 20260902080312 | 25 | 340 | 20.9 | 0.0 | 0.00 | 0.00 | 0.00 | 34 | 1021.0 |
| 20260902074847 | 25 | 330 | 17.7 | 0.0 | 0.00 | 0.00 | 0.00 | 34 | 1021.0 |
| 20260902073311 | 25 | 330 | 17.7 | 0.0 | 0.00 | 0.00 | 0.00 | 34 | 1021.0 |
| 20260902070311 | 23 | 90 | 4.8 | 0.0 | 0.00 | 0.00 | 0.00 | 50 | 1021.0 |
| 20260902064811 | 21 | 90 | 4.8 | 0.0 | 0.00 | 0.00 | 0.00 | 60 | 1021.0 |
| 20260902063312 | 21 | 90 | 4.8 | 0.0 | 0.00 | 0.00 | 0.00 | 60 | 1021.0 |
| 20260902061812 | 20 | 90 | 8.0 | 0.0 | 0.00 | 0.00 | 0.00 | 69 | 1021.0 |
| 20260902060311 | 20 | 90 | 8.0 | 0.0 | 0.00 | 0.00 | 0.00 | 69 | 1021.0 |
| 20260902054810 | 18 | 1.6 | 0.0 | 0.00 | 0.00 | 0.00 | 73 | 1021.0 | |
| 20260902053311 | 18 | 1.6 | 0.0 | 0.00 | 0.00 | 0.00 | 73 | 1021.0 | |
| 20260902051811 | 16 | 1.6 | 0.0 | 0.00 | 0.00 | 0.00 | 83 | 1021.0 | |
| 20260902050312 | 16 | 1.6 | 0.0 | 0.00 | 0.00 | 0.00 | 83 | 1021.0 | |
| 20260902044811 | 13 | 3.2 | 0.0 | 0.00 | 0.00 | 0.00 | 94 | 1021.0 | |
| 20260902043311 | 13 | 3.2 | 0.0 | 0.00 | 0.00 | 0.00 | 94 | 1021.0 | |
| 20260902041811 | 12 | 1.6 | 0.0 | 0.00 | 0.00 | 0.00 | 100 | 1021.0 | |
| 20260902040315 | 12 | 1.6 | 0.0 | 0.00 | 0.00 | 0.00 | 100 | 1021.0 | |
| 20260902034811 | 13 | 1.6 | 0.0 | 0.00 | 0.00 | 0.00 | 94 | 1021.0 | |
| 20260902033312 | 13 | 1.6 | 0.0 | 0.00 | 0.00 | 0.00 | 94 | 1021.0 | |
| 20260902031811 | 13 | 3.2 | 0.0 | 0.00 | 0.00 | 0.00 | 94 | 1020.0 | |
| 20260902030311 | 13 | 3.2 | 0.0 | 0.00 | 0.00 | 0.00 | 94 | 1020.0 | |
| 20260902024811 | 15 | 1.6 | 0.0 | 0.00 | 0.00 | 0.00 | 88 | 1020.0 | |
| 20260902023311 | 15 | 1.6 | 0.0 | 0.00 | 0.00 | 0.00 | 88 | 1020.0 | |
| 20260902021813 | 13 | 230 | 4.8 | 0.0 | 0.00 | 0.00 | 0.00 | 94 | 1020.0 |
| 20260902020311 | 13 | 230 | 4.8 | 0.0 | 0.00 | 0.00 | 0.00 | 94 | 1020.0 |
| 20260902014810 | 16 | 220 | 1.6 | 0.0 | 0.00 | 0.00 | 0.00 | 88 | 1021.0 |
| 20260902013311 | 16 | 220 | 1.6 | 0.0 | 0.00 | 0.00 | 0.00 | 88 | 1021.0 |
| 20260902011810 | 16 | 1.6 | 0.0 | 0.00 | 0.00 | 0.00 | 88 | 1021.0 | |
| 20260902010311 | 16 | 1.6 | 0.0 | 0.00 | 0.00 | 0.00 | 88 | 1021.0 | |
| 20260902004811 | 16 | 90 | 4.8 | 0.0 | 0.00 | 0.00 | 0.00 | 88 | 1020.0 |
| 20260902003310 | 16 | 90 | 4.8 | 0.0 | 0.00 | 0.00 | 0.00 | 88 | 1020.0 |
| 20260902001812 | 17 | 3.2 | 0.0 | 0.00 | 0.00 | 0.00 | 83 | 1020.0 | |
| 20260902000322 | 17 | 3.2 | 0.0 | 0.00 | 0.00 | 0.00 | 83 | 1020.0 | |
| 20260901234813 | 16 | 240 | 4.8 | 0.0 | 0.00 | 0.00 | 0.00 | 88 | 1020.0 |
| 20260901233311 | 16 | 240 | 4.8 | 0.0 | 0.00 | 0.00 | 0.00 | 88 | 1020.0 |
| 20260901231811 | 16 | 260 | 9.7 | 0.0 | 0.00 | 0.00 | 0.00 | 88 | 1020.0 |
| 20260901230327 | 16 | 260 | 9.7 | 0.0 | 0.00 | 0.00 | 0.00 | 88 | 1020.0 |